Location: Narragansett
(41.4496°N, 71.4488°W)
Time: 04:14:08
(UTC+00:00)

Nauka - Pass Details

Date: 20 September 2021
Orbit: 417 x 423 km, 51.6° (Epoch: 19 October)

Event Time Altitude Azimuth Distance (km) Brightness Sun altitude
Rises 23:23:45 0° 247° (WSW) 2,351 ? -7.9°
Reaches altitude 10° 23:25:53 10° 253° (WSW) 1,492 ? -8.3°
Maximum altitude 23:29:08 49° 329° (NNW) 551 ? -8.9°
Drops below altitude 10° 23:32:25 10° 46° (NE) 1,501 ? -9.5°
Enters shadow 23:33:31 - 50° (NE) 1,935 ? -9.7°
